Find Starlink 37811

NORAD ID: 100296 Int'l Des: 2026-183 Owner: SPXS Country: US Constellation: starlink operational

現在のビュー

3D地球を読み込み中...

About Starlink 37811

Starlink 37811 (NORAD 100296) is a starlink constellation satellite launched Aug 11, 2026 by SPXS of US. with a mass of 575.00 kg.

次回通過

Passes for default location (London). Set your location on the main map for personalized predictions.

高度履歴

Loading altitude history...

軌道要素

1 A0296U 26183AA 26251.63477748 -.00486777 00000-0 -43171-2 0 9998
2 A0296 53.1598 315.6055 0000478 53.1553 306.9509 15.69355442 4444
Epoch: Sep 8, 2026 • Age: 80 hours

現在のステータス

高度 374.3 km
遠地点 / 近地点 N/A
速度 7.69 km/s
衛星直下点 44.53°N, 91.58°E
打ち上げ日 Aug 11, 2026
運用期間 31 days
タイプ internet

技術仕様

分類 Payload
質量 575.00 kg
乾燥質量 530.00 kg
総質量 575.00 kg
長さ 0.30 m
直径 4.10 m
スパン 29.00 m
形状 Box + pan
製造者 SPXS
バスタイプ Starlink V2MO
フェーズステータス In Orbit
所有者/国 SPXS/US

Most Searched